• In Österreich
  • Länderverzeichnis
  • Für 7 Tage
  • Wassertemperatur
  • Satellitenkarten
  • Wetterkarte
  • News
  • Widgets
  • user-avatar
    Anmelden

    Stündliche Wetter Río Gallegos

    Heute, 21 Oktober, Samstag

    Zeit Temperatur Niederschläge Wind Luftdruck Luftfeuchtigkeit
    00:00 +5°C° 0 mm 3 m/S 762 mmHg 64%
    01:00 +4°C° 0 mm 3 m/S 762 mmHg 66%
    02:00 +5°C° 0 mm 2 m/S 762 mmHg 69%
    03:00 +4°C° 0 mm 2 m/S 762 mmHg 71%
    04:00 +4°C° 0 mm 2 m/S 762 mmHg 74%
    05:00 +4°C° 0 mm 3 m/S 762 mmHg 68%
    06:00 +7°C° 0 mm 3 m/S 762 mmHg 63%
    07:00 +8°C° 0 mm 3 m/S 762 mmHg 57%
    08:00 +8°C° 0 mm 4 m/S 762 mmHg 55%
    09:00 +9°C° 0 mm 5 m/S 761 mmHg 52%
    10:00 +10°C° 0 mm 6 m/S 761 mmHg 50%
    11:00 +11°C° 0 mm 7 m/S 760 mmHg 49%
    12:00 +11°C° 0 mm 7 m/S 759 mmHg 48%
    13:00 +12°C° 0 mm 8 m/S 758 mmHg 46%
    14:00 +12°C° 0 mm 8 m/S 757 mmHg 46%
    15:00 +12°C° 0 mm 8 m/S 756 mmHg 45%
    16:00 +12°C° 0 mm 9 m/S 755 mmHg 45%
    17:00 +12°C° 0 mm 8 m/S 754 mmHg 46%
    18:00 +11°C° 0 mm 8 m/S 753 mmHg 47%
    19:00 +11°C° 0 mm 7 m/S 752 mmHg 48%
    20:00 +11°C° 0 mm 7 m/S 752 mmHg 50%
    21:00 +11°C° 0 mm 8 m/S 751 mmHg 51%
    22:00 +10°C° 0 mm 8 m/S 751 mmHg 53%
    23:00 +10°C° 0 mm 7 m/S 750 mmHg 54%

    Morgen, 22 Oktober, Sonntag

    Zeit Temperatur Niederschläge Wind Luftdruck Luftfeuchtigkeit
    00:00 +10°C° 0 mm 6 m/S 749 mmHg 56%
    01:00 +10°C° 0 mm 5 m/S 749 mmHg 57%
    02:00 +9°C° 0 mm 5 m/S 748 mmHg 59%
    03:00 +10°C° 0 mm 4 m/S 748 mmHg 60%
    04:00 +10°C° 0 mm 4 m/S 748 mmHg 62%
    05:00 +10°C° 0,1 mm 4 m/S 747 mmHg 62%
    06:00 +10°C° 0,1 mm 4 m/S 746 mmHg 62%
    07:00 +11°C° 0,1 mm 4 m/S 746 mmHg 62%
    08:00 +12°C° 0 mm 5 m/S 745 mmHg 56%
    09:00 +14°C° 0 mm 6 m/S 744 mmHg 50%
    10:00 +15°C° 0 mm 6 m/S 743 mmHg 44%
    11:00 +17°C° 0 mm 8 m/S 742 mmHg 41%
    12:00 +18°C° 0 mm 9 m/S 741 mmHg 38%
    13:00 +21°C° 0 mm 10 m/S 739 mmHg 35%
    14:00 +19°C° 0 mm 10 m/S 739 mmHg 39%
    15:00 +18°C° 0 mm 9 m/S 738 mmHg 44%
    16:00 +17°C° 0 mm 8 m/S 738 mmHg 48%
    17:00 +15°C° 0 mm 7 m/S 738 mmHg 51%
    18:00 +14°C° 0 mm 5 m/S 738 mmHg 55%
    19:00 +13°C° 0 mm 3 m/S 738 mmHg 59%
    20:00 +12°C° 0 mm 4 m/S 738 mmHg 57%
    21:00 +12°C° 0 mm 4 m/S 738 mmHg 55%
    22:00 +10°C° 0 mm 5 m/S 738 mmHg 53%
    23:00 +9°C° 0 mm 5 m/S 739 mmHg 54%

    übermorgen, 23 Oktober, Montag

    Zeit Temperatur Niederschläge Wind Luftdruck Luftfeuchtigkeit
    00:00 +9°C° 0 mm 6 m/S 739 mmHg 54%
    01:00 +8°C° 0 mm 7 m/S 739 mmHg 54%
    02:00 +6°C° 0 mm 7 m/S 740 mmHg 56%
    03:00 +7°C° 0 mm 6 m/S 740 mmHg 58%
    04:00 +5°C° 0 mm 6 m/S 741 mmHg 59%
    05:00 +6°C° 0 mm 8 m/S 741 mmHg 54%
    06:00 +7°C° 0 mm 10 m/S 741 mmHg 49%
    07:00 +7°C° 0 mm 12 m/S 741 mmHg 43%
    08:00 +8°C° 0 mm 12 m/S 742 mmHg 40%
    09:00 +9°C° 0 mm 12 m/S 742 mmHg 36%
    10:00 +10°C° 0 mm 12 m/S 742 mmHg 33%
    11:00 +10°C° 0 mm 12 m/S 742 mmHg 32%
    12:00 +11°C° 0 mm 11 m/S 742 mmHg 32%
    13:00 +11°C° 0 mm 11 m/S 742 mmHg 31%
    14:00 +11°C° 0 mm 10 m/S 742 mmHg 32%
    15:00 +11°C° 0 mm 10 m/S 742 mmHg 32%
    16:00 +11°C° 0 mm 10 m/S 742 mmHg 32%
    17:00 +10°C° 0 mm 9 m/S 743 mmHg 36%
    18:00 +9°C° 0 mm 8 m/S 743 mmHg 39%
    19:00 +6°C° 0 mm 7 m/S 744 mmHg 43%
    20:00 +6°C° 0 mm 7 m/S 744 mmHg 46%
    21:00 +5°C° 0 mm 8 m/S 745 mmHg 49%
    22:00 +4°C° 0 mm 8 m/S 745 mmHg 53%
    23:00 +3°C° 0 mm 9 m/S 746 mmHg 54%

    24 Oktober, Dienstag

    Zeit Temperatur Niederschläge Wind Luftdruck Luftfeuchtigkeit
    00:00 +2°C° 0 mm 10 m/S 746 mmHg 55%
    01:00 +2°C° 0 mm 11 m/S 746 mmHg 56%
    02:00 +2°C° 0 mm 10 m/S 747 mmHg 58%
    03:00 +2°C° 0 mm 10 m/S 748 mmHg 59%
    04:00 +2°C° 0 mm 10 m/S 748 mmHg 61%
    05:00 +2°C° 0 mm 11 m/S 749 mmHg 58%
    06:00 +3°C° 0 mm 12 m/S 749 mmHg 56%
    07:00 +4°C° 0 mm 13 m/S 750 mmHg 53%
    08:00 +5°C° 0,1 mm 13 m/S 750 mmHg 51%
    09:00 +5°C° 0,1 mm 13 m/S 750 mmHg 48%
    10:00 +7°C° 0,1 mm 13 m/S 751 mmHg 46%
    11:00 +7°C° 0,1 mm 12 m/S 751 mmHg 44%
    12:00 +8°C° 0,1 mm 12 m/S 751 mmHg 43%
    13:00 +8°C° 0,1 mm 12 m/S 752 mmHg 41%
    14:00 +8°C° 0 mm 11 m/S 752 mmHg 41%
    15:00 +8°C° 0 mm 11 m/S 752 mmHg 41%
    16:00 +8°C° 0 mm 10 m/S 753 mmHg 41%
    17:00 +7°C° 0 mm 9 m/S 753 mmHg 45%
    18:00 +6°C° 0 mm 7 m/S 754 mmHg 49%
    19:00 +6°C° 0 mm 5 m/S 754 mmHg 53%
    20:00 +6°C° 0,1 mm 4 m/S 754 mmHg 57%
    21:00 +7°C° 0,1 mm 3 m/S 754 mmHg 60%
    22:00 +6°C° 0,1 mm 2 m/S 754 mmHg 64%
    23:00 +6°C° 0,2 mm 2 m/S 754 mmHg 66%

    25 Oktober, Mittwoch

    Zeit Temperatur Niederschläge Wind Luftdruck Luftfeuchtigkeit
    00:00 +5°C° 0,2 mm 3 m/S 754 mmHg 68%
    01:00 +5°C° 0,2 mm 3 m/S 753 mmHg 70%
    02:00 +5°C° 0,1 mm 3 m/S 753 mmHg 70%
    03:00 +5°C° 0,1 mm 4 m/S 753 mmHg 71%
    04:00 +5°C° 0,1 mm 4 m/S 753 mmHg 72%
    05:00 +6°C° 0 mm 4 m/S 753 mmHg 68%
    06:00 +7°C° 0 mm 4 m/S 754 mmHg 64%
    07:00 +8°C° 0 mm 5 m/S 754 mmHg 60%
    08:00 +10°C° 0 mm 4 m/S 754 mmHg 57%
    09:00 +11°C° 0 mm 4 m/S 754 mmHg 54%
    10:00 +12°C° 0 mm 3 m/S 754 mmHg 51%
    11:00 +13°C° 0 mm 3 m/S 753 mmHg 50%
    12:00 +14°C° 0 mm 3 m/S 753 mmHg 49%
    13:00 +14°C° 0 mm 3 m/S 753 mmHg 48%
    14:00 +14°C° 0,2 mm 3 m/S 753 mmHg 50%
    15:00 +14°C° 0,2 mm 3 m/S 753 mmHg 52%
    16:00 +14°C° 0,2 mm 3 m/S 753 mmHg 54%
    17:00 +13°C° 0,3 mm 3 m/S 754 mmHg 59%
    18:00 +12°C° 0,3 mm 3 m/S 754 mmHg 64%
    19:00 +11°C° 0,3 mm 3 m/S 754 mmHg 68%
    20:00 +11°C° 0,1 mm 3 m/S 754 mmHg 70%
    21:00 +10°C° 0,1 mm 3 m/S 754 mmHg 72%
    22:00 +10°C° 0,1 mm 3 m/S 754 mmHg 74%
    23:00 +9°C° 0 mm 3 m/S 754 mmHg 74%

    26 Oktober, Donnerstag

    Zeit Temperatur Niederschläge Wind Luftdruck Luftfeuchtigkeit
    00:00 +8°C° 0 mm 3 m/S 754 mmHg 74%
    01:00 +8°C° 0 mm 3 m/S 754 mmHg 75%
    02:00 +7°C° 0 mm 3 m/S 754 mmHg 75%
    03:00 +7°C° 0 mm 3 m/S 754 mmHg 76%
    04:00 +7°C° 0 mm 3 m/S 754 mmHg 76%
    05:00 +8°C° 0 mm 3 m/S 754 mmHg 72%
    06:00 +8°C° 0 mm 4 m/S 754 mmHg 67%
    07:00 +10°C° 0 mm 4 m/S 754 mmHg 63%
    08:00 +10°C° 0,1 mm 5 m/S 754 mmHg 61%
    09:00 +12°C° 0,1 mm 5 m/S 753 mmHg 58%
    10:00 +13°C° 0,1 mm 6 m/S 753 mmHg 56%
    11:00 +13°C° 0,1 mm 6 m/S 753 mmHg 53%
    12:00 +14°C° 0,1 mm 5 m/S 752 mmHg 51%
    13:00 +15°C° 0,1 mm 5 m/S 752 mmHg 48%
    14:00 +14°C° 0,2 mm 5 m/S 751 mmHg 51%
    15:00 +14°C° 0,2 mm 5 m/S 751 mmHg 53%
    16:00 +13°C° 0,2 mm 5 m/S 750 mmHg 56%
    17:00 +12°C° 0,8 mm 5 m/S 750 mmHg 64%
    18:00 +11°C° 0,8 mm 4 m/S 750 mmHg 72%
    19:00 +10°C° 0,8 mm 4 m/S 750 mmHg 80%
    20:00 +8°C° 2,8 mm 4 m/S 749 mmHg 83%
    21:00 +7°C° 2,8 mm 5 m/S 749 mmHg 87%
    22:00 +6°C° 2,8 mm 5 m/S 748 mmHg 90%
    23:00 +7°C° 1 mm 6 m/S 747 mmHg 88%
    Mehr zeigen